Zurück zum Katalog

FENGYUN 1C DEB

AktivSSO
NORAD 30702·DEBRIS·🇨🇳 China

Gestartet May 10, 1999 von Taiyuan Satellite Launch Center

Loading…

Nächste Überflüge (nächste 24 Stunden)

TLE

AktuellSource: Space-Track

Epoche: Sep 13, 2026, 07:35 UTC

1 30702U 99025ARL 26256.31603745  .00000569  00000-0  37699-3 0  9994
2 30702  98.7569 271.3600 0069396 251.4530 121.0595 14.04249027    17

Verfolge FENGYUN 1C DEB in Echtzeit mit AllMySat

Download on the App Store